Change the Weather History Date:

Friday, January 3, 2014

  Actual Average Record
Temperature  
Mean Temperature 29 °F 43 °F  
Max Temperature 36 °F 52 °F 73 °F (2000)
Min Temperature 21 °F 34 °F 9 °F (1928)
Degree Days  
Heating Degree Days 36 22  
Month to date heating degree days 86 66  
Since 1 July heating degree days 1136 1147  
Cooling Degree Days 0 0  
Month to date cooling degree days 0 0  
Year to date cooling degree days 0 0  
Moisture  
Dew Point 11 °F    
Average Humidity 52    
Maximum Humidity 68    
Minimum Humidity 35    
Precipitation  
Precipitation T in 0.11 in 2.62 in (1886)
Month to date precipitation 0.26 0.34  
Year to date precipitation 0.26 0.34  
Snow  
Snow T in 0.00 in 2.10 in (2002)
Month to date snowfall T 0.1  
Since 1 July snowfall 0.4 0.5  
Snow Depth 0.00 in    
Sea Level Pressure  
Sea Level Pressure 30.33 in    
Wind  
Wind Speed 11 mph (NNW)    
Max Wind Speed 29 mph    
Max Gust Speed 37 mph    
Visibility 10 miles    
Events Snow    
T = Trace of Precipitation, MM = Missing Value Source: NWS Daily Summary

Daily Weather History Graph

Daily Weather History Graph

Search for Another Location

Airport or City:

Trip Planner

Search our weather history database for the weather conditions in past years. The results will help you decide how hot, cold, wet, or windy it might be!

Date:

Astronomy

Jan. 03, 2014 Rise Set
Actual Time 7:42 AM EST 5:42 PM EST
Civil Twilight 7:15 AM EST 6:09 PM EST
Nautical Twilight 6:44 AM EST 6:40 PM EST
Astronomical Twilight 6:13 AM EST 7:10 PM EST
Moon 9:16 AM EST (1/3) 8:40 PM EST (1/3)
Length of Visible Light 10h 54m
Length of Day
9h 59m
Waxing Crescent, 8% of the Moon is Illuminated
Jan 3
Waxing Crescent
Jan 7
First Quarter
Jan 15
Full
Jan 24
Last Quarter
Jan 30
New

Hourly Weather History & Observations

Time (EST) Temp. Windchill Dew Point Humidity Pressure Visibility Wind Dir Wind Speed Gust Speed Precip Events Conditions
12:52 AM 25.0 °F 10.2 °F 12.0 °F 58% 30.16 in 10.0 mi NW 21.9 mph 35.7 mph 0.00 in Snow Light Snow
1:31 AM 24.8 °F 11.5 °F 12.2 °F 59% 30.16 in 10.0 mi NW 17.3 mph 26.5 mph 0.00 in   Mostly Cloudy
1:52 AM 25.0 °F 9.9 °F 12.0 °F 58% 30.19 in 10.0 mi NNW 23.0 mph 34.5 mph 0.00 in   Overcast
2:52 AM 23.0 °F 9.2 °F 10.0 °F 58% 30.22 in 10.0 mi NNW 17.3 mph 32.2 mph 0.00 in   Mostly Cloudy
3:52 AM 23.0 °F 8.7 °F 10.9 °F 60% 30.24 in 10.0 mi NNW 18.4 mph 27.6 mph N/A   Mostly Cloudy
4:52 AM 21.9 °F 8.2 °F 10.9 °F 63% 30.25 in 10.0 mi NW 16.1 mph 25.3 mph N/A   Scattered Clouds
5:52 AM 21.9 °F 8.7 °F 10.9 °F 63% 30.27 in 10.0 mi NW 15.0 mph 20.7 mph N/A   Scattered Clouds
6:52 AM 21.9 °F 9.2 °F 12.0 °F 66% 30.30 in 10.0 mi NNW 13.8 mph 21.9 mph N/A   Scattered Clouds
7:52 AM 21.0 °F 8.1 °F 10.0 °F 63% 30.32 in 10.0 mi NNW 13.8 mph 23.0 mph N/A   Scattered Clouds
8:52 AM 21.9 °F 8.7 °F 10.0 °F 60% 30.37 in 10.0 mi NNW 15.0 mph 19.6 mph N/A   Scattered Clouds
9:52 AM 24.1 °F 11.5 °F 9.0 °F 53% 30.40 in 10.0 mi NW 15.0 mph - N/A   Partly Cloudy
10:52 AM 25.0 °F 14.2 °F 10.0 °F 53% 30.43 in 10.0 mi WNW 11.5 mph - N/A   Scattered Clouds
11:52 AM 28.0 °F 19.3 °F 10.0 °F 47% 30.41 in 10.0 mi NW 9.2 mph - N/A   Scattered Clouds
12:52 PM 30.0 °F 22.4 °F 10.0 °F 43% 30.40 in 10.0 mi North 8.1 mph - N/A   Partly Cloudy
1:52 PM 32.0 °F 24.8 °F 10.0 °F 40% 30.39 in 10.0 mi NNE 8.1 mph - N/A   Scattered Clouds
2:52 PM 34.0 °F 28.0 °F 10.0 °F 37% 30.36 in 10.0 mi North 6.9 mph - N/A   Scattered Clouds
3:52 PM 35.1 °F 29.3 °F 10.9 °F 37% 30.36 in 10.0 mi North 6.9 mph - N/A   Partly Cloudy
4:52 PM 34.0 °F 31.0 °F 9.0 °F 35% 30.37 in 10.0 mi East 3.5 mph - N/A   Partly Cloudy
5:52 PM 32.0 °F 26.4 °F 10.9 °F 42% 30.38 in 10.0 mi NW 5.8 mph - N/A   Partly Cloudy
6:52 PM 30.9 °F 25.2 °F 10.9 °F 43% 30.39 in 10.0 mi NNW 5.8 mph - N/A   Partly Cloudy
7:52 PM 32.0 °F 27.5 °F 10.9 °F 42% 30.39 in 10.0 mi North 4.6 mph - N/A   Clear
8:52 PM 30.0 °F 26.5 °F 12.0 °F 47% 30.39 in 10.0 mi NNE 3.5 mph - N/A   Clear
9:52 PM 30.9 °F 24.3 °F 12.0 °F 46% 30.39 in 10.0 mi ENE 6.9 mph - N/A   Clear
10:52 PM 28.9 °F 21.1 °F 14.0 °F 54% 30.40 in 10.0 mi East 8.1 mph - N/A   Partly Cloudy
11:52 PM 27.0 °F 20.5 °F 14.0 °F 58% 30.40 in 10.0 mi East 5.8 mph - N/A   Partly Cloudy